Location: El Carrer d�Abaix
(41.5797°N, 2.1791°E)
Time: 22:14:57
(UTC+00:00)

NOSS 3-4 (C) - Pass Details

Date: 06 June 2020
Orbit: 893 x 1319 km, 63.4° (Epoch: 02 July)

Event Time Altitude Azimuth Distance (km) Brightness Sun altitude
Rises 21:26:27 0° 215° (SW) 3,490 6.2 -17.6°
Reaches altitude 10° 21:28:54 10° 216° (SW) 2,557 5.5 -17.8°
Maximum altitude 21:34:48 84° 304° (NW) 927 3.4 -18.4°
Drops below altitude 10° 21:41:05 10° 34° (NE) 2,713 6.1 -19.0°
Sets 21:43:45 0° 35° (NE) 3,717 6.9 -19.3°
